Location: Tierra del Sol
(32.6128°N, 116.3319°W)
Time: 07:12:18
(UTC-08:00)

N. Korean satellite - Pass Details

Date: 14 October 2017
Orbit: 461 x 513 km, 97.2° (Epoch: 10 December)

Event Time Altitude Azimuth Distance (km) Brightness Sun altitude
Rises 19:31:57 0° 193° (SSW) 2,555 10.4 -17.4°
Reaches altitude 10° 19:34:19 10° 208° (SSW) 1,668 9.6 -17.9°
Maximum altitude 19:37:15 24° 263° (W) 1,047 9.1 -18.5°
Drops below altitude 10° 19:40:10 10° 318° (NW) 1,653 9.8 -19.1°
Sets 19:42:30 0° 333° (NNW) 2,526 10.6 -19.6°
